Location: Bratislava
(0.0000°N, 17.1167°E)
Time: 02:43:16
(UTC+01:00)

MOS 1-B Rocket - Pass Details

Date: 24 January 2021
Orbit: 891 x 1605 km, 99.0° (Epoch: 06 March)

Event Time Altitude Azimuth Distance (km) Brightness Sun altitude
Exits shadow 20:25:38 75° 173° (S) 1,226 4.3 -33.3°
Drops below altitude 10° 20:32:41 10° 191° (SSW) 3,368 7.1 -34.9°
Sets 20:35:37 0° 192° (SSW) 4,440 7.8 -35.6°
